HUANJING 1B (HJ-1B)

Last updated on Thu Nov 21 2024 00:02:26 GMT+0000 (Coordinated Universal Time)

1 33321U 08041B 24325.60972371 .00002263 00000+0 29365-3 0 9996 2 33321 97.6270 329.5142 0036077 264.4013 95.3085 14.81258342873437
UTC large
Height (km)
Speed (km/s)
/
Latitude / Longitude
Inclination (degrees)
Orbital Period (minutes)
Azimuth
Elevation
Range (km)
Doppler Factor

Next 0 passes for location: London (51.5072 / 0.1276)

Sorry there are no passes over London.